Content
SEND FEEDBACK

Daily
Averages
Monthly
Summary
United States of America

ST. LOUIS - SAINT LOUIS UNIVERSITY, MISSOURI


Home > North America > United States > Missouri
Elevation: 177 meters     Latitude: 38 38N     Longitude: 090 14W

WEATHER
 
SELECT A DAY
Number of Records: 186,092;   Date Range: 1/1/95 - 7/29/14
 
SHARE

PRINT THIS DATA

[ ← Previous Day ]
WEATHER ALMANAC - 7 MAY, 2013
[ Next Day → ]
[ °F ]   °C
Weather ElementAverageHighLow
Temperature17.3 °C25 °C (2:53 pm)12.2 °C (2:53 am)
Dewpoint13.2 °C15.6 °C (7:53 pm)11.1 °C (2:53 pm)
Humidity79 %97 % (2:53 am)42 % (2:53 pm)
Barometer1015.9 hPa1017.3 hPa (10:53 am)1014.9 hPa (1:53 am)
Wind Speed1.9 km/h13 km/h (3:53 pm)
Weather ElementAverage
Visibility12.9 km
Wind DirectionNNE (25.8 °)

Weather ElementTotal
Precipitation---
Cooling Degree Days0.3 (Base 18.3)
Growing Degree Days8.6 (Base 10)
Averaged from 26 records on 7 May, 2013
WEATHER CONDITIONS BREAKOUT
WIND DIRECTION BREAKOUT
WEATHER BY HOUR - 7 MAY, 2013
[ °F ]   °C
Local TimeTemperatureDewpointHumidityBarometerVisibilityWind DirectionWind SpeedGust SpeedPrecipitationEventsConditions
1:53 AM13.3 °C12.2 °C93 %1014.9 hPa12.9 kmCalmPartly Cloudy
2:53 AM12.2 °C11.7 °C97 %1014.9 hPa6.4 kmCalmOvercast
3:05 AM13 °C12 °C94 %1015.2 hPa4 kmCalmOvercast
3:13 AM13 °C12 °C94 %1015.2 hPa9.7 kmCalmOvercast
3:53 AM12.8 °C12.2 °C96 %1015.2 hPa2.4 kmCalmOvercast
4:02 AM13 °C12 °C94 %1015.2 hPa4.8 kmCalmOvercast
4:53 AM13.3 °C12.2 °C93 %1015.2 hPa9.7 kmCalmOvercast
5:53 AM12.8 °C12.2 °C96 %1015.9 hPa12.9 kmCalmOvercast
6:53 AM13.3 °C12.2 °C93 %1016.3 hPa12.9 kmCalmOvercast
7:53 AM15 °C13.3 °C90 %1016.3 hPa16.1 kmCalmOvercast
8:53 AM17.2 °C14.4 °C84 %1016.9 hPa14.5 kmCalmOvercast
9:53 AM20 °C13.9 °C68 %1016.9 hPa16.1 kmENE (70°)7.4 km/hOvercast
10:53 AM20 °C13.3 °C65 %1017.3 hPa16.1 kmNNE (30°)7.4 km/hMostly Cloudy
11:53 AM22.8 °C13.9 °C57 %1017.3 hPa16.1 kmEast (80°)5.6 km/hScattered Clouds
12:53 PM22.2 °C13.9 °C59 %1016.6 hPa16.1 kmWest (260°)5.6 km/hOvercast
1:53 PM24.4 °C13.3 °C50 %1016.3 hPa16.1 kmNorth (10°)5.6 km/hScattered Clouds
2:53 PM25 °C11.1 °C42 %1015.9 hPa16.1 kmCalmScattered Clouds
3:53 PM22.8 °C13.3 °C55 %1015.6 hPa16.1 kmENE (70°)13 km/hOvercast
4:53 PM20.6 °C13.3 °C63 %1015.6 hPa16.1 kmCalmOvercast
5:53 PM20 °C15 °C73 %1015.6 hPa16.1 kmSSE (150°)5.6 km/h0 mmOvercast
6:53 PM22.2 °C13.9 °C59 %1015.2 hPa16.1 kmCalmMostly Cloudy
7:53 PM20 °C15.6 °C76 %1015.2 hPa16.1 kmCalmScattered Clouds
8:53 PM17.2 °C14.4 °C84 %1015.6 hPa16.1 kmCalmClear
9:53 PM15.6 °C14.4 °C93 %1015.9 hPa14.5 kmCalmClear
10:53 PM15 °C13.3 °C90 %1015.9 hPa14.5 kmCalmClear
11:53 PM13.3 °C12.8 °C97 %1015.9 hPa8 kmCalmClear
Hourly data recorded from KCPS, located 0 kilometers away from St. Louis - Saint Louis University, Missouri







STORIES FROM OUR PARTNERS